Flag for Czechia

Past Weather in Plzen, Czechia — Yesterday and Last 2 Weeks

Now
77 °F

Scattered clouds.


Feels Like: 79 °F
Forecast: 83 / 65 °F
Wind: N/A

Location: Kocelovice

Current Time: Aug 10, 2020 at 11:16:37 am

Latest Report: Aug 10, 2020 at 10:00 am


Visibility: 16 mi

Pressure: 30.00 "Hg

Humidity: 64%

Dew Point: 64 °F

Location of PlzenLocation

Past Weather in Plzen — Graph

°F

Plzen Temperature Yesterday

Maximum temperature yesterday: 85 °F (at 4:00 pm)
Minimum temperature yesterday: 59 °F (at 6:00 am)
Average temperature yesterday: 74 °F

High & Low Weather Summary for the Past Weeks

 TemperatureHumidityPressure
High87 °F (Aug 1, 5:00 pm)99% (Aug 5, 4:00 am)30.20 "Hg (Aug 5, 4:00 am)
Low49 °F (Aug 5, 5:00 am)26% (Jul 30, 4:00 pm)29.78 "Hg (Aug 4, 3:00 am)
Average68 °F65%30.02 "Hg
* Reported Jul 26 9:00 am — Aug 10 9:00 am, Plzen. Weather by CustomWeather, © 2020

Note: Actual official high and low records may vary slightly from our data, if they occured in-between our weather recording intervals... More about our weather records

Plzen Weather History for the Previous 24 Hours

Scroll right to see more
 ConditionsComfort  
Time TempWeatherWind HumidityBarometerVisibility
9:00 am
Mon, Aug 10
74 °FPassing clouds.N/A68%30.01 "Hg15 mi
8:00 am69 °FPassing clouds.1 mph75%30.02 "Hg11 mi
7:00 am63 °FMild.No wind87%30.04 "Hg7 mi
6:00 am62 °FCool.2 mph89%30.04 "Hg6 mi
5:00 am62 °FCool.1 mph90%30.04 "Hg7 mi
4:00 am64 °FMild.N/A81%30.04 "Hg11 mi
3:00 am65 °FMild.No wind78%30.04 "Hg13 mi
2:00 am65 °FMild.2 mph83%30.04 "Hg11 mi
1:00 am68 °FMild.1 mph73%30.03 "Hg15 mi
12:00 am71 °FMild.2 mph62%30.03 "Hg18 mi
11:00 pm
Sun, Aug 9
71 °FMild.2 mph66%30.03 "Hg17 mi
10:00 pm73 °FPassing clouds.N/A61%30.02 "Hg16 mi
9:00 pm76 °FPassing clouds.2 mph55%30.00 "Hg17 mi
8:00 pm82 °FPassing clouds.1 mph39%29.98 "Hg19 mi
7:00 pm83 °FPassing clouds.3 mph39%29.97 "Hg19 mi
6:00 pm85 °FPassing clouds.N/A33%29.97 "Hg22 mi
5:00 pm85 °FPassing clouds.N/A32%29.99 "Hg22 mi
4:00 pm85 °FPassing clouds.N/A32%30.00 "Hg19 mi
3:00 pm85 °FPassing clouds.N/A38%30.01 "Hg19 mi
2:00 pm83 °FPassing clouds.N/A35%30.03 "Hg19 mi
1:00 pm83 °FPassing clouds.N/A38%30.04 "Hg19 mi
12:00 pm82 °FPassing clouds.N/A42%30.06 "Hg19 mi
11:00 am80 °FPassing clouds.N/A40%30.08 "Hg19 mi
Weather by CustomWeather, © 2020

See weather overview